Date String (YYYY-MM-DD hh:mm:ss) UTC,Instrument flags,Ambient pressure (hPa),Sample flow (lpm),Bypass flow (lpm),Sample temperature (°C),Ambient temperature (°C),ASC tube jacket temperature (°C),LED temperature (°C),Box temperature (°C),Sample RH (%),Span deviation,Mass concentration (μg/m³),Mass concentration (μg/m³),Mass concentration (μg/m³)
DateTimeUTC,F1_M11,P_M11,Q1_M11,Q2_M11,T1_M11,T2_M11,T3_M11,T4_M11,T5_M11,U1_M11,ZSPAN_M11,X0_M11,X2_M11,X1_M11
2021-11-15 11:00:00,,0826.1,5.00,0.00,26.6,25.7,00.0,35.6,28.3,12.2,0000.0,0000.88,0000.53,0000.34
2021-11-15 11:01:00,,0826.2,5.00,0.00,26.6,25.7,00.0,35.6,28.3,12.2,0000.0,0000.89,0000.54,0000.34
2021-11-15 11:02:00,,0826.2,5.00,0.00,26.6,25.7,00.0,35.6,28.3,12.2,0000.0,0000.86,0000.52,0000.34
2021-11-15 11:03:00,,0826.2,5.00,0.00,26.6,25.8,00.0,35.6,28.4,12.1,0000.0,0000.85,0000.52,0000.33
2021-11-15 11:04:00,,0826.1,5.00,0.00,26.6,25.8,00.0,35.6,28.4,12.1,0000.0,0000.85,0000.51,0000.33
2021-11-15 11:05:00,,0826.2,4.98,0.00,26.6,25.8,00.0,35.6,28.4,11.4,0000.0,0000.99,0000.54,0000.34
2021-11-15 11:06:00,,0826.2,5.01,0.00,26.6,25.8,00.0,35.6,28.4,11.7,0000.0,0001.09,0000.56,0000.34
2021-11-15 11:07:00,,0826.2,4.99,0.00,26.6,25.9,00.0,35.6,28.5,11.9,0000.0,0001.16,0000.59,0000.34
2021-11-15 11:08:00,,0826.2,5.00,0.00,26.6,25.9,00.0,35.6,28.5,11.8,0000.0,0001.13,0000.58,0000.34
2021-11-15 11:09:00,,0826.2,5.00,0.00,26.7,25.9,00.0,35.6,28.5,11.5,0000.0,0001.02,0000.54,0000.33
2021-11-15 11:10:00,,0826.2,4.99,0.00,26.7,25.9,00.0,35.6,28.5,11.4,0000.0,0000.96,0000.51,0000.33
2021-11-15 11:11:00,,0826.3,5.00,0.00,26.7,26.0,00.0,35.6,28.5,11.7,0000.0,0000.97,0000.51,0000.33
2021-11-15 11:12:00,,0826.3,4.99,0.00,26.7,26.0,00.0,35.7,28.5,11.8,0000.0,0001.05,0000.53,0000.33
2021-11-15 11:13:00,,0826.2,5.01,0.00,26.7,25.9,00.0,35.7,28.4,11.4,0000.0,0001.08,0000.54,0000.34
2021-11-15 11:14:00,,0826.2,5.00,0.00,26.7,25.9,00.0,35.7,28.4,10.8,0000.0,0001.15,0000.55,0000.33
2021-11-15 11:15:00,,0826.2,5.01,0.00,26.7,25.9,00.0,35.7,28.4,10.6,0000.0,0001.26,0000.56,0000.32
2021-11-15 11:16:00,,0826.3,5.00,0.00,26.7,25.9,00.0,35.7,28.4,10.6,0000.0,0001.23,0000.55,0000.30
2021-11-15 11:17:00,,0826.2,4.99,0.00,26.7,25.9,00.0,35.7,28.5,10.7,0000.0,0001.16,0000.55,0000.30
2021-11-15 11:18:00,,0826.3,5.02,0.00,26.7,25.9,00.0,35.7,28.5,11.0,0000.0,0001.18,0000.56,0000.30
2021-11-15 11:19:00,,0826.4,4.99,0.00,26.7,25.9,00.0,35.7,28.5,11.2,0000.0,0001.30,0000.57,0000.31
2021-11-15 11:20:00,,0826.3,5.00,0.00,26.7,26.0,00.0,35.7,28.5,10.9,0000.0,0001.38,0000.59,0000.31
2021-11-15 11:21:00,,0826.2,5.01,0.00,26.7,26.0,00.0,35.7,28.5,10.7,0000.0,0002.42,0000.62,0000.31
2021-11-15 11:22:00,,0826.2,5.00,0.00,26.7,26.0,00.0,35.7,28.5,10.7,0000.0,0002.45,0000.63,0000.31
2021-11-15 11:23:00,,0826.2,4.99,0.00,26.8,26.0,00.0,35.7,28.6,10.7,0000.0,0002.43,0000.61,0000.30
2021-11-15 11:24:00,,0826.2,5.00,0.00,26.8,26.0,00.0,35.7,28.6,10.8,0000.0,0002.57,0000.64,0000.30
2021-11-15 11:25:00,,0826.1,5.00,0.00,26.8,26.0,00.0,35.7,28.5,10.7,0000.0,0002.67,0000.66,0000.31
2021-11-15 11:26:00,,0826.2,4.99,0.00,26.8,26.0,00.0,35.7,28.5,10.6,0000.0,0002.53,0000.64,0000.32
2021-11-15 11:27:00,,0826.2,5.00,0.00,26.8,26.0,00.0,35.7,28.6,10.6,0000.0,0002.51,0000.65,0000.33
2021-11-15 11:28:00,,0826.2,5.01,0.00,26.8,26.0,00.0,35.8,28.6,10.6,0000.0,0002.53,0000.65,0000.33
2021-11-15 11:29:00,,0826.2,4.99,0.00,26.8,26.0,00.0,35.8,28.6,10.6,0000.0,0002.52,0000.65,0000.33
2021-11-15 11:30:00,,0826.2,5.00,0.00,26.8,26.0,00.0,35.8,28.6,10.7,0000.0,0002.40,0000.64,0000.33
2021-11-15 11:31:00,,0826.2,5.01,0.00,26.8,26.0,00.0,35.8,28.5,10.7,0000.0,0002.32,0000.62,0000.33
2021-11-15 11:32:00,,0826.3,4.99,0.00,26.8,26.0,00.0,35.8,28.5,10.7,0000.0,0001.50,0000.60,0000.33
2021-11-15 11:33:00,,0826.4,5.01,0.00,26.8,25.9,00.0,35.8,28.5,10.8,0000.0,0001.55,0000.58,0000.32
2021-11-15 11:34:00,,0826.3,4.99,0.00,26.8,25.9,00.0,35.8,28.5,10.8,0000.0,0001.49,0000.57,0000.32
2021-11-15 11:35:00,,0826.3,5.00,0.00,26.8,25.9,00.0,35.8,28.6,10.8,0000.0,0001.81,0000.53,0000.32
2021-11-15 11:36:00,,0826.4,5.00,0.00,26.8,26.0,00.0,35.8,28.7,10.7,0000.0,0002.06,0000.51,0000.32
2021-11-15 11:37:00,,0826.4,5.00,0.00,26.8,25.9,00.0,35.8,28.6,10.8,0000.0,0002.16,0000.53,0000.32
2021-11-15 11:38:00,,0826.2,5.01,0.00,26.8,25.9,00.0,35.8,28.6,10.7,0000.0,0002.22,0000.54,0000.32
2021-11-15 11:39:00,,0826.2,4.99,0.00,26.8,25.9,00.0,35.8,28.6,10.6,0000.0,0002.32,0000.55,0000.32
2021-11-15 11:40:00,,0826.4,5.01,0.00,26.8,25.9,00.0,35.8,28.6,10.7,0000.0,0002.69,0000.57,0000.32
2021-11-15 11:41:00,,0826.3,4.99,0.00,26.8,25.9,00.0,35.8,28.5,10.7,0000.0,0002.88,0000.61,0000.33
2021-11-15 11:42:00,,0826.2,5.00,0.00,26.8,25.9,00.0,35.8,28.5,10.7,0000.0,0003.05,0000.63,0000.33
2021-11-15 11:43:00,,0826.2,5.01,0.00,26.8,25.9,00.0,35.8,28.6,10.6,0000.0,0002.92,0000.64,0000.33
2021-11-15 11:44:00,,0826.2,5.00,0.00,26.8,25.9,00.0,35.8,28.6,10.5,0000.0,0002.87,0000.68,0000.34
2021-11-15 11:45:00,,0826.2,5.00,0.00,26.8,25.9,00.0,35.8,28.6,10.5,0000.0,0003.00,0000.72,0000.34
2021-11-15 11:46:00,,0826.2,5.01,0.00,26.8,25.9,00.0,35.8,28.6,10.6,0000.0,0002.80,0000.73,0000.35
2021-11-15 11:47:00,,0826.3,5.00,0.00,26.8,25.9,00.0,35.8,28.6,10.4,0000.0,0002.15,0000.72,0000.35
2021-11-15 11:48:00,,0826.2,4.99,0.00,26.8,25.9,00.0,35.8,28.6,10.4,0000.0,0002.08,0000.71,0000.34
2021-11-15 11:49:00,,0826.2,5.01,0.00,26.8,25.9,00.0,35.8,28.5,10.4,0000.0,0002.10,0000.73,0000.35
2021-11-15 11:50:00,,0826.3,5.00,0.00,26.8,25.9,00.0,35.8,28.5,10.4,0000.0,0002.04,0000.72,0000.34
2021-11-15 11:51:00,,0826.4,4.99,0.00,26.8,25.9,00.0,35.8,28.5,10.5,0000.0,0001.62,0000.69,0000.34
2021-11-15 11:52:00,,0826.4,5.01,0.00,26.8,25.9,00.0,35.8,28.5,10.5,0000.0,0001.49,0000.66,0000.33
2021-11-15 11:53:00,,0826.5,5.01,0.00,26.8,25.9,00.0,35.8,28.5,10.5,0000.0,0001.27,0000.62,0000.33
2021-11-15 11:54:00,,0826.4,4.99,0.00,26.8,25.9,00.0,35.8,28.5,10.3,0000.0,0001.36,0000.61,0000.33
2021-11-15 11:55:00,,0826.5,5.01,0.00,26.8,25.9,00.0,35.8,28.6,10.4,0000.0,0001.26,0000.56,0000.32
2021-11-15 11:56:00,,0826.5,5.00,0.00,26.8,25.9,00.0,35.8,28.6,10.5,0000.0,0001.09,0000.52,0000.32
2021-11-15 11:57:00,,0826.6,5.00,0.00,26.8,26.0,00.0,35.8,28.6,10.5,0000.0,0001.05,0000.50,0000.32
2021-11-15 11:58:00,,0826.6,5.00,0.00,26.8,26.0,00.0,35.8,28.5,10.7,0000.0,0001.06,0000.51,0000.32
2021-11-15 11:59:00,,0826.6,4.99,0.00,26.8,26.0,00.0,35.8,28.6,10.9,0000.0,0001.07,0000.52,0000.32
